Location: Crescent
(42.8242°N, 73.7329°W)
Time: 18:13:18
(UTC+00:00)

Vanguard 1 - Pass Details

Date: 19 February 2026
Orbit: 653 x 3818 km, 34.2° (Epoch: 5 March)

Event Time Altitude Azimuth Distance (km) Brightness Sun altitude
Rises 22:18:29 0° 262° (W) 5,160 16.3 1.5°
Reaches altitude 10° 22:21:17 10° 259° (W) 4,493 15.8 1.0°
Maximum altitude 22:34:41 64° 182° (S) 3,206 12.8 -1.3°
Drops below altitude 10° 22:56:31 10° 108° (ESE) 6,888 13.8 -5.3°
Sets 23:02:08 0° 106° (ESE) 7,952 14.1 -6.3°
